Location: Omaha
(41.2590°N, 95.9380°W)
Time: 00:44:28
(UTC-06:00)

Vanguard 1 Rocket - Visible Passes

Search period start: 18 February 2018 00:00
Search period end: 28 February 2018 00:00
Orbit: 655 x 4222 km, 34.3° (Epoch: 17 February)

Date Brightness Start Highest point End Pass type
(mag) Time Alt. Az. Time Alt. Az. Time Alt. Az.
18 Feb 10.4 02:24:37 68° SE 02:24:37 68° SE 02:42:43 10° E visible
18 Feb 10.3 04:41:53 38° W 04:52:53 59° SSW 05:08:56 10° SE visible
18 Feb 11.0 19:57:46 10° SSE 20:05:22 17° SE 20:05:22 17° SE visible
18 Feb 10.8 22:16:05 10° SSW 22:59:55 - E 22:22:42 28° SSW visible
19 Feb 10.8 01:17:10 45° ESE 01:17:10 45° ESE 01:29:48 10° E visible
19 Feb 10.3 03:34:26 62° SW 03:38:48 68° SSW 03:57:44 10° ESE visible
19 Feb 10.5 05:51:42 18° W 06:07:59 40° SW 06:21:35 10° SSE visible
19 Feb 10.6 21:06:11 10° SSW 21:16:03 31° SSE 21:16:03 31° SSE visible
19 Feb 11.2 23:29:44 10° SW 00:09:46 24° E 00:16:03 10° E visible
20 Feb 10.4 02:27:02 68° SSE 02:27:02 68° SSE 02:45:39 10° ESE visible
20 Feb 10.4 04:44:18 37° W 04:55:11 54° SSW 05:11:34 10° SE visible
20 Feb 10.8 19:58:01 10° S 20:09:25 22° SE 20:09:25 22° SE visible
20 Feb 10.6 22:18:22 10° SW 23:02:25 - E 22:26:46 36° SSW visible
21 Feb 10.8 01:19:42 46° ESE 01:19:42 46° ESE 01:32:42 10° E visible
21 Feb 10.3 03:36:58 59° SW 03:41:15 64° SSW 04:00:31 10° SE visible
21 Feb 10.6 05:54:14 17° W 06:09:58 35° SW 06:23:39 10° SSE visible
21 Feb 11.0 18:56:42 10° ESE 18:58:28 10° ESE 19:00:17 10° ESE visible
21 Feb 10.4 21:08:05 10° SSW 21:20:10 39° SSE 21:20:10 39° SSE visible
21 Feb 11.0 23:32:25 10° WSW 00:12:25 24° E 00:18:53 10° E visible
22 Feb 10.4 02:29:41 67° SSE 02:29:41 67° SSE 02:48:31 10° ESE visible
22 Feb 10.5 04:46:58 35° W 04:57:20 48° SW 05:13:59 10° SSE visible
22 Feb 10.6 19:59:10 10° S 20:11:22 28° SE 20:13:36 27° ESE visible
22 Feb 10.5 22:20:52 10° SW 23:05:11 - E 22:30:56 43° SSW visible
23 Feb 10.8 00:47:48 10° WSW 01:22:29 45° ESE 01:35:34 10° ESE visible
23 Feb 10.4 03:39:45 56° SW 03:43:34 60° SSW 04:03:09 10° SE visible
23 Feb 10.8 05:57:03 16° W 06:11:48 29° SW 06:25:20 10° S visible
23 Feb 10.8 18:52:59 10° SSE 19:00:10 15° ESE 19:07:00 12° E visible
23 Feb 10.2 21:10:19 10° SSW 21:24:20 47° SSE 21:24:20 47° SSE visible
23 Feb 10.9 23:35:14 10° WSW 00:15:20 24° E 00:21:41 10° E visible
24 Feb 10.4 02:32:38 64° SSE 02:32:38 64° SSE 02:51:16 10° ESE visible
24 Feb 10.6 04:49:56 33° WSW 04:59:20 42° SW 05:16:09 10° SSE visible
24 Feb 10.4 20:00:53 10° SSW 20:13:14 33° SE 20:17:43 30° ESE visible
24 Feb 10.3 22:23:34 10° SW 23:08:17 - E 22:35:04 51° SSW visible
25 Feb 10.8 00:50:43 10° W 01:25:35 44° ESE 01:38:21 10° ESE visible
25 Feb 10.4 03:42:53 53° SW 03:45:47 54° SSW 04:05:36 10° SE visible
25 Feb 10.9 06:00:12 14° W 06:13:32 24° SW 06:26:27 10° S visible
25 Feb 10.6 18:53:14 10° SSE 19:01:58 19° SE 19:11:04 13° E visible
25 Feb 10.1 21:12:48 10° SW 21:27:41 52° SSE 21:28:24 52° SE visible
25 Feb 10.8 23:38:10 10° WSW 00:18:37 23° E 00:24:27 10° E visible
26 Feb 10.5 02:35:56 59° SSE 02:35:56 59° SSE 02:53:53 10° SE visible
26 Feb 10.7 04:53:15 31° WSW 05:01:13 36° SW 05:17:59 10° SSE visible
26 Feb 10.2 20:03:00 10° SSW 20:15:16 39° SE 20:21:42 32° ESE visible
26 Feb 10.2 22:26:25 10° WSW 23:11:44 - E 22:39:02 58° SSW visible
27 Feb 10.9 00:53:40 10° W 01:29:03 40° ESE 01:41:03 10° ESE visible
27 Feb 10.5 03:46:23 48° SW 03:47:52 49° SW 04:07:47 10° SSE visible
27 Feb 11.1 06:03:42 12° W 06:15:13 18° SW 06:26:42 10° SSW visible
27 Feb 10.4 18:54:31 10° S 19:03:53 24° SE 19:14:57 14° E visible
27 Feb 10.0 21:15:29 10° SW 21:30:02 58° SSE 21:32:16 56° SE visible
